Skip Page Navigation
NASA JPL Caltech
NASA Logo - Jet Propulsion Laboratory + View the NASA Portal
+ Center for Near-Earth Object Studies
JPL Home Earth Solar System Stars & Galaxies Technology
JPL Solar System Dynamics
BODIES ORBITS EPHEMERIDES TOOLS PHYSICAL DATA DISCOVERY FAQ SITE MAP
JPL Small-Body Database Browser
Search: [ help ]  
362106 (2009 CK25)
Classification: Main-belt Asteroid          SPK-ID: 2362106
Ephemeris | Orbit Diagram | Orbital Elements | Mission Design | Physical Parameters | Discovery Circumstances | Close-Approach Data ]

[ show orbit diagram ]
Orbital Elements at Epoch 2459200.5 (2020-Dec-17.0) TDB
Reference: JPL 11 (heliocentric ecliptic J2000)
 Element Value Uncertainty (1-sigma)   Units 
e .05134777626628853 7.8729e-08  
a 2.398589162130234 2.2965e-08 au
q 2.275426942478427 1.955e-07 au
i 4.315974230345049 8.4391e-06 deg
node 356.8937697980959 9.2608e-05 deg
peri 179.6565338227277 0.00011888 deg
M 41.66578018287944 7.1725e-05 deg
tp 2459043.460376659214
(2020-Jul-12.96037666)
0.00027057 TDB
period 1356.851213502851
3.71
1.9487e-05
5.335e-08
d
yr
n .2653201739567472 3.8104e-09 deg/d
Q 2.521751381782043 2.4144e-08 au
  Orbit Determination Parameters
   # obs. used (total)      107  
   data-arc span      4573 days (12.52 yr)  
   first obs. used      2007-09-14  
   last obs. used      2020-03-22  
   planetary ephem.      DE441  
   SB-pert. ephem.      SB441-N16  
   condition code      0  
   norm. resid. RMS      .64041  
   source      ORB  
   producer      Otto Matic  
   solution date      2021-Apr-14 09:38:16  

Additional Information
 Earth MOID = 1.27851 au 
 Jupiter MOID = 2.43829 au 
 T_jup = 3.522 
[ show covariance matrix ]

Ephemeris | Orbit Diagram | Orbital Elements | Mission Design | Physical Parameters | Discovery Circumstances | Close-Approach Data ]

Physical Parameter Table
Parameter Symbol Value Units Sigma Reference Notes
absolute magnitude H 18.10   n/a E2021B25  

362106 (2009 CK25)          Discovered 2009-Feb-01 by Spacewatch at Kitt Peak
Reference: Last Updated: 2013-04-29

[ show close-approach data ]
Alternate Designations
 2009 CK25 = 2007 TX7 
Ephemeris | Orbit Diagram | Orbital Elements | Mission Design | Physical Parameters | Discovery Circumstances | Close-Approach Data ]
ABOUT SSD CREDITS/AWARDS PRIVACY/COPYRIGHT GLOSSARY LINKS
FirstGov 2021-Jun-15 08:32 UT
(server date/time)  
NASA Home Page
Site Manager:   Ryan S. Park
Webmaster  Alan B. Chamberlin